User: anonymous   Login
Location: Unspecified
(0.0000°N, 0.0000°E)
Time: 11:51:21
(UTC+00:00)
Language:

NJUST-1 - Orbit

View from above orbital plane
View from above orbital plane
View from above satellite
View from above satellite

Ground track
Ground track

The orbit data is extracted from the following two-line orbital elements,

1 42722U 98067MB  18348.02892455  .00032765  00000-0  21676-3 0  9994
2 42722  51.6350 161.7731 0005603 187.2995 256.7419 15.75219993 88843
Epoch (UTC): 14 December 2018 00:41:39
Eccentricity: 0.0005603
inclination: 51.6350°
perigee height: 340 km
apogee height: 348 km
right ascension of ascending node: 161.7731°
argument of perigee: 187.2995°
revolutions per day: 15.75219993
mean anomaly at epoch: 256.7419°
orbit number at epoch: 8884

The dashed part of the orbit path shows where the satellite is in the earth's shadow,  

DLR